Weather History for KMIW - April, 2013

Change the Weather History Date:

Friday, April 19, 2013

  Actual Average Record
Temperature  
Mean Temperature 34 °F 50 °F  
Max Temperature 38 °F 62 °F 75 °F (2014)
Min Temperature 29 °F 39 °F 29 °F (2013)
Degree Days  
Heating Degree Days 31 15  
Month to date heating degree days 449 343  
Since 1 July heating degree days 6595 6644  
Cooling Degree Days 0 0  
Month to date cooling degree days 0 0  
Year to date cooling degree days 0 0  
Moisture  
Dew Point 27 °F    
Average Humidity 77    
Maximum Humidity 89    
Minimum Humidity 64    
Precipitation  
Precipitation 0.00 in 0.13 in 1.43 in (2015)
Month to date precipitation 5.62 1.80  
Sea Level Pressure  
Sea Level Pressure 29.79 in    
Wind  
Wind Speed 22 mph (WNW)    
Max Wind Speed 32 mph    
Max Gust Speed 39 mph    
Visibility 10 miles    
Events      
T = Trace of Precipitation, MM = Missing Value Source: NWS Daily Summary

Daily Weather History Graph

Daily Weather History Graph

Search for Another Location

Airport or City:

Trip Planner

Search our weather history database for the weather conditions in past years. The results will help you decide how hot, cold, wet, or windy it might be!

Date:

Astronomy

Apr. 19, 2013 Rise Set
Actual Time 6:24 AM CDT 7:57 PM CDT
Civil Twilight 5:55 AM CDT 8:27 PM CDT
Nautical Twilight 5:19 AM CDT 9:02 PM CDT
Astronomical Twilight 4:41 AM CDT 9:40 PM CDT
Moon 1:36 PM CDT (4/19) 2:46 AM CDT (4/19)
Length of Visible Light 14h 32m
Length of Day
13h 33m
First Quarter, 62% of the Moon is Illuminated
Apr 19
First Quarter
Apr 25
Full
May 2
Last Quarter
May 9
New
May 17
First Quarter

Hourly Weather History & Observations

Time (CDT) Temp. Windchill Dew Point Humidity Pressure Visibility Wind Dir Wind Speed Gust Speed Precip Events Conditions
12:03 AM 33.8 °F 22.5 °F 30.2 °F 87% 29.62 in 10.0 mi West 19.6 mph 27.6 mph N/A   Overcast
12:24 AM 33.8 °F 22.5 °F 30.2 °F 87% 29.62 in 9.0 mi West 19.6 mph 26.5 mph 0.00 in   Overcast
12:53 AM 33.1 °F 21.5 °F 30.0 °F 89% 29.64 in 10.0 mi West 19.6 mph 27.6 mph 0.00 in   Overcast
1:53 AM 33.1 °F 21.5 °F 28.9 °F 85% 29.63 in 10.0 mi WNW 19.6 mph 33.4 mph N/A   Overcast
2:53 AM 33.1 °F 20.6 °F 28.9 °F 85% 29.63 in 10.0 mi West 23.0 mph 28.8 mph N/A   Overcast
3:53 AM 33.1 °F 20.9 °F 28.9 °F 85% 29.63 in 10.0 mi West 21.9 mph 29.9 mph N/A   Overcast
4:53 AM 32.0 °F 18.6 °F 28.0 °F 85% 29.64 in 10.0 mi WNW 25.3 mph 29.9 mph N/A   Overcast
5:53 AM 32.0 °F 19.2 °F 28.0 °F 85% 29.65 in 10.0 mi WNW 23.0 mph 33.4 mph N/A   Overcast
6:53 AM 30.9 °F 18.1 °F 26.1 °F 82% 29.68 in 10.0 mi West 21.9 mph 31.1 mph N/A   Overcast
7:53 AM 30.9 °F 17.8 °F 26.1 °F 82% 29.69 in 10.0 mi WNW 23.0 mph 29.9 mph N/A   Overcast
8:53 AM 30.9 °F 17.8 °F 26.1 °F 82% 29.70 in 10.0 mi WNW 23.0 mph 34.5 mph N/A   Overcast
9:53 AM 32.0 °F 19.5 °F 26.1 °F 79% 29.73 in 10.0 mi WNW 21.9 mph 34.5 mph N/A   Overcast
10:53 AM 34.0 °F 21.0 °F 27.0 °F 75% 29.75 in 10.0 mi WNW 26.5 mph 33.4 mph N/A   Overcast
11:53 AM 35.1 °F 22.5 °F 27.0 °F 72% 29.77 in 10.0 mi WNW 26.5 mph 34.5 mph N/A   Overcast
12:13 PM 35.6 °F 23.0 °F 26.6 °F 70% 29.75 in 10.0 mi WNW 27.6 mph 34.5 mph N/A   Overcast
12:53 PM 36.0 °F 24.4 °F 28.0 °F 73% 29.79 in 10.0 mi WNW 23.0 mph 32.2 mph N/A   Overcast
1:02 PM 35.6 °F 23.2 °F 28.4 °F 75% 29.76 in 10.0 mi WNW 26.5 mph 35.7 mph N/A   Overcast
1:09 PM 35.6 °F 23.2 °F 28.4 °F 75% 29.76 in 10.0 mi WNW 26.5 mph 33.4 mph N/A   Overcast
1:24 PM 35.6 °F 23.0 °F 26.6 °F 70% 29.77 in 10.0 mi WNW 27.6 mph 36.8 mph N/A   Overcast
1:53 PM 36.0 °F 23.7 °F 27.0 °F 70% 29.81 in 10.0 mi WNW 26.5 mph 35.7 mph N/A   Overcast
2:53 PM 37.0 °F 24.7 °F 28.0 °F 70% 29.83 in 10.0 mi WNW 28.8 mph 35.7 mph N/A   Overcast
3:53 PM 37.0 °F 25.4 °F 27.0 °F 67% 29.85 in 10.0 mi WNW 25.3 mph 35.7 mph N/A   Overcast
4:53 PM 37.0 °F 25.1 °F 27.0 °F 67% 29.88 in 10.0 mi WNW 26.5 mph 34.5 mph N/A   Overcast
5:53 PM 37.0 °F 25.1 °F 26.1 °F 65% 29.92 in 10.0 mi NW 26.5 mph 34.5 mph N/A   Overcast
6:53 PM 35.1 °F 23.3 °F 25.0 °F 67% 29.96 in 10.0 mi NW 23.0 mph 31.1 mph N/A   Overcast
7:53 PM 34.0 °F 22.7 °F 26.1 °F 73% 29.98 in 10.0 mi NW 19.6 mph - N/A   Overcast
8:53 PM 34.0 °F 22.7 °F 25.0 °F 70% 30.01 in 10.0 mi NW 19.6 mph 28.8 mph N/A   Overcast
9:53 PM 32.0 °F 22.1 °F 25.0 °F 75% 30.04 in 10.0 mi NW 13.8 mph - N/A   Scattered Clouds
10:53 PM 30.9 °F 22.8 °F 25.0 °F 79% 30.05 in 10.0 mi WNW 9.2 mph - N/A   Clear
11:53 PM 30.0 °F 21.1 °F 25.0 °F 82% 30.07 in 10.0 mi WNW 10.4 mph - N/A   Clear